�������l�o���
Date,Time,MP-1(��Sv/h),MP-2(��Sv/h),MP-3(��Sv/h),MP-4(��Sv/h),MP-5(��Sv/h),MP-6(��Sv/h),MP-7(��Sv/h),MP-8(��Sv/h),����,����(m/s),���J
2019/03/31,00:00,0.751,1.097,0.765,1.415,1.018,0.431,0.772,0.732,�k��,4.9,�L
2019/03/31,00:10,0.753,1.098,0.766,1.417,1.016,0.432,0.771,0.730,�k��,5.5,�L
2019/03/31,00:20,0.753,1.098,0.767,1.417,1.019,0.433,0.771,0.732,�k��,6.0,�L
2019/03/31,00:30,0.754,1.098,0.766,1.413,1.019,0.433,0.771,0.732,�k��,4.8,�L
2019/03/31,00:40,0.753,1.098,0.767,1.416,1.018,0.434,0.772,0.732,�k��,4.5,�L
2019/03/31,00:50,0.754,1.099,0.767,1.417,1.018,0.433,0.772,0.733,�k��,6.0,��
2019/03/31,01:00,0.754,1.098,0.766,1.416,1.018,0.434,0.771,0.732,�k��,5.1,��
2019/03/31,01:10,0.753,1.101,0.767,1.414,1.017,0.432,0.773,0.732,�k��,4.3,��
2019/03/31,01:20,0.751,1.097,0.766,1.415,1.016,0.433,0.772,0.732,�k��,5.8,��
2019/03/31,01:30,0.752,1.098,0.767,1.415,1.016,0.432,0.771,0.731,�k�k��,6.2,��
2019/03/31,01:40,0.752,1.096,0.765,1.416,1.017,0.432,0.773,0.730,�k��,5.1,��
2019/03/31,01:50,0.754,1.098,0.765,1.412,1.017,0.433,0.772,0.731,�k��,4.4,��
2019/03/31,02:00,0.754,1.097,0.763,1.415,1.018,0.432,0.772,0.732,�k�k��,4.9,��
2019/03/31,02:10,0.754,1.097,0.765,1.415,1.016,0.430,0.773,0.731,�k��,4.2,��
2019/03/31,02:20,0.752,1.098,0.763,1.412,1.015,0.433,0.772,0.732,�k�k��,4.9,��
2019/03/31,02:30,0.754,1.098,0.766,1.413,1.016,0.431,0.773,0.731,�k�k��,5.5,��
2019/03/31,02:40,0.751,1.098,0.764,1.413,1.015,0.432,0.773,0.732,�k�k��,5.2,��
2019/03/31,02:50,0.752,1.098,0.763,1.415,1.014,0.431,0.771,0.732,�k�k��,4.9,��
2019/03/31,03:00,0.751,1.099,0.764,1.414,1.017,0.431,0.771,0.730,�k�k��,5.2,��
2019/03/31,03:10,0.753,1.098,0.766,1.413,1.017,0.431,0.772,0.731,�k�k��,5.8,��
2019/03/31,03:20,0.754,1.098,0.763,1.413,1.017,0.432,0.772,0.730,�k��,6.0,��
2019/03/31,03:30,0.752,1.098,0.764,1.414,1.017,0.431,0.771,0.731,�k��,4.2,��
2019/03/31,03:40,0.753,1.096,0.764,1.413,1.017,0.433,0.772,0.729,�k��,3.8,��
2019/03/31,03:50,0.752,1.098,0.765,1.415,1.018,0.433,0.771,0.730,�k��,3.6,��
2019/03/31,04:00,0.752,1.097,0.763,1.414,1.020,0.431,0.771,0.731,�k��,3.4,��
2019/03/31,04:10,0.753,1.098,0.764,1.415,1.017,0.430,0.771,0.733,�k��,4.0,��
2019/03/31,04:20,0.752,1.095,0.766,1.412,1.018,0.432,0.771,0.731,�k�k��,4.5,��
2019/03/31,04:30,0.752,1.097,0.763,1.415,1.019,0.433,0.771,0.732,�k�k��,5.3,��
2019/03/31,04:40,0.751,1.101,0.764,1.415,1.016,0.434,0.771,0.734,�k��,5.8,��
2019/03/31,04:50,0.754,1.098,0.765,1.417,1.018,0.433,0.772,0.732,�k�k��,4.8,��
2019/03/31,05:00,0.750,1.101,0.767,1.415,1.017,0.433,0.772,0.731,�k��,5.1,��
2019/03/31,05:10,0.752,1.100,0.764,1.412,1.018,0.432,0.770,0.731,�k�k��,5.0,��
2019/03/31,05:20,0.754,1.097,0.765,1.416,1.017,0.432,0.770,0.732,�k��,4.5,��
2019/03/31,05:30,0.752,1.099,0.764,1.416,1.016,0.432,0.771,0.733,�k��,4.3,��
2019/03/31,05:40,0.752,1.099,0.765,1.416,1.019,0.433,0.770,0.732,�k��,5.4,��
2019/03/31,05:50,0.752,1.098,0.764,1.415,1.017,0.432,0.774,0.732,�k��,5.1,�L
2019/03/31,06:00,0.753,1.100,0.766,1.416,1.017,0.432,0.771,0.731,�k��,3.9,�L
2019/03/31,06:10,0.753,1.098,0.765,1.416,1.016,0.433,0.771,0.730,�k��,3.7,�L
2019/03/31,06:20,0.753,1.098,0.763,1.415,1.018,0.432,0.772,0.731,�k��,4.4,�L
2019/03/31,06:30,0.753,1.095,0.764,1.417,1.018,0.433,0.773,0.732,�k�k��,4.4,�L
2019/03/31,06:40,0.754,1.101,0.765,1.416,1.017,0.434,0.770,0.732,�k��,4.6,�L
2019/03/31,06:50,0.752,1.098,0.766,1.415,1.017,0.433,0.772,0.732,�k��,4.5,�L
2019/03/31,07:00,0.754,1.100,0.765,1.414,1.018,0.431,0.773,0.731,�k��,4.2,�L
2019/03/31,07:10,0.754,1.099,0.767,1.414,1.018,0.433,0.772,0.731,�k��,4.3,�L
2019/03/31,07:20,0.754,1.097,0.766,1.415,1.017,0.431,0.773,0.732,�k��,4.0,�L
2019/03/31,07:30,0.753,1.098,0.765,1.415,1.019,0.432,0.773,0.732,�k��,4.5,�L
2019/03/31,07:40,0.753,1.099,0.765,1.417,1.017,0.432,0.772,0.730,�k��,3.8,�L
2019/03/31,07:50,0.752,1.099,0.764,1.415,1.020,0.433,0.773,0.731,�k��,5.7,�L
2019/03/31,08:00,0.753,1.098,0.766,1.415,1.018,0.432,0.771,0.733,�k��,3.6,�L
2019/03/31,08:10,0.753,1.092,0.765,1.414,1.014,0.433,0.770,0.730,�k��,3.7,�L
2019/03/31,08:20,0.749,1.086,0.761,1.408,1.005,0.434,0.770,0.730,�k��,1.2,�L
2019/03/31,08:30,0.746,1.083,0.761,1.402,1.005,0.435,0.768,0.729,�k��,0.9,�L
2019/03/31,08:40,0.746,1.085,0.761,1.400,1.008,0.433,0.769,0.729,��,1.5,��
2019/03/31,08:50,0.748,1.086,0.763,1.402,1.009,0.433,0.770,0.730,���쐼,1.5,��
2019/03/31,09:00,0.750,1.088,0.761,1.403,1.010,0.435,0.771,0.729,���k��,2.0,��
2019/03/31,09:10,0.752,1.089,0.761,1.400,1.011,0.433,0.770,0.730,�k��,1.1,��
2019/03/31,09:20,0.751,1.090,0.762,1.400,1.010,0.435,0.770,0.730,�k�k��,2.3,��
2019/03/31,09:30,0.748,1.088,0.761,1.400,1.012,0.433,0.769,0.731,�k�k��,2.9,��
2019/03/31,09:40,0.749,1.089,0.762,1.403,1.012,0.433,0.768,0.730,�k�k��,3.5,�L
2019/03/31,09:50,0.751,1.091,0.762,1.401,1.012,0.434,0.768,0.729,�k,2.6,��
2019/03/31,10:00,0.751,1.091,0.763,1.402,1.013,0.432,0.769,0.730,�k,3.1,��
2019/03/31,10:10,0.747,1.092,0.758,1.401,1.014,0.430,0.769,0.729,�k��,3.8,��
2019/03/31,10:20,0.752,1.092,0.761,1.402,1.013,0.431,0.770,0.731,�k�k��,6.1,��
2019/03/31,10:30,0.751,1.093,0.762,1.404,1.015,0.432,0.768,0.730,�k�k��,4.8,��
2019/03/31,10:40,0.751,1.094,0.763,1.401,1.013,0.433,0.767,0.728,�k�k��,6.1,��
2019/03/31,10:50,0.752,1.092,0.764,1.404,1.013,0.433,0.767,0.728,�k�k��,6.1,��
2019/03/31,11:00,0.752,1.094,0.763,1.407,1.013,0.431,0.769,0.730,�k�k��,7.0,�L
2019/03/31,11:10,0.749,1.094,0.762,1.403,1.014,0.433,0.765,0.727,�k�k��,6.7,�L
2019/03/31,11:20,0.754,1.094,0.762,1.405,1.015,0.432,0.767,0.731,�k�k��,5.5,�L
2019/03/31,11:30,0.753,1.093,0.760,1.404,1.016,0.432,0.769,0.731,�k�k��,4.9,��
2019/03/31,11:40,0.753,1.093,0.762,1.406,1.016,0.432,0.768,0.732,�k�k��,5.2,��
2019/03/31,11:50,0.752,1.099,0.764,1.404,1.016,0.432,0.770,0.731,�k�k��,4.7,��
2019/03/31,12:00,0.753,1.098,0.764,1.409,1.017,0.433,0.768,0.730,�k�k��,4.3,��
2019/03/31,12:10,0.754,1.098,0.764,1.405,1.017,0.432,0.768,0.731,�k��,3.8,��
2019/03/31,12:20,0.757,1.099,0.762,1.405,1.014,0.433,0.770,0.732,�k�k��,3.4,��
2019/03/31,12:30,0.754,1.098,0.764,1.407,1.017,0.433,0.769,0.732,�k��,3.0,��
2019/03/31,12:40,0.755,1.099,0.767,1.407,1.018,0.433,0.769,0.732,�k��,3.2,��
2019/03/31,12:50,0.755,1.099,0.765,1.407,1.018,0.432,0.771,0.731,�k�k��,3.9,��
2019/03/31,13:00,0.754,1.098,0.767,1.407,1.019,0.433,0.769,0.733,�k��,4.6,��
2019/03/31,13:10,0.755,1.101,0.764,1.409,1.018,0.432,0.771,0.731,�k�k��,4.9,��
2019/03/31,13:20,0.756,1.099,0.767,1.409,1.020,0.434,0.771,0.731,�k��,4.0,��
2019/03/31,13:30,0.755,1.098,0.766,1.409,1.018,0.433,0.772,0.731,�k�k��,5.5,��
2019/03/31,13:40,0.755,1.101,0.767,1.409,1.019,0.435,0.771,0.731,�k�k��,4.8,��
2019/03/31,13:50,0.755,1.102,0.766,1.409,1.020,0.434,0.771,0.733,�k�k��,5.7,��
2019/03/31,14:00,0.757,1.107,0.765,1.409,1.020,0.434,0.773,0.732,�k�k��,6.5,��
2019/03/31,14:10,0.758,1.105,0.765,1.410,1.023,0.435,0.770,0.732,�k�k��,6.0,��
2019/03/31,14:20,0.757,1.105,0.766,1.413,1.022,0.434,0.770,0.734,�k,4.9,��
2019/03/31,14:30,0.757,1.106,0.768,1.410,1.023,0.435,0.771,0.733,�k�k��,6.0,��
2019/03/31,14:40,0.758,1.105,0.765,1.413,1.025,0.434,0.770,0.732,�k�k��,6.8,��
2019/03/31,14:50,0.757,1.105,0.767,1.410,1.023,0.435,0.771,0.734,�k�k��,5.0,��
2019/03/31,15:00,0.757,1.105,0.766,1.412,1.020,0.434,0.770,0.732,�k�k��,4.2,��
2019/03/31,15:10,0.757,1.106,0.766,1.410,1.022,0.435,0.771,0.732,�k�k��,3.7,��
2019/03/31,15:20,0.756,1.105,0.764,1.411,1.022,0.432,0.773,0.732,�k�k��,6.3,��
2019/03/31,15:30,0.758,1.107,0.766,1.412,1.022,0.435,0.772,0.731,�k��,4.7,��
2019/03/31,15:40,0.757,1.109,0.767,1.411,1.024,0.435,0.771,0.732,�k�k��,5.7,��
2019/03/31,15:50,0.758,1.106,0.766,1.411,1.022,0.434,0.773,0.733,�k��,4.4,��
2019/03/31,16:00,0.756,1.107,0.767,1.413,1.024,0.435,0.769,0.733,�k�k��,5.0,��
2019/03/31,16:10,0.758,1.108,0.767,1.412,1.023,0.434,0.773,0.734,�k�k��,4.5,��
2019/03/31,16:20,0.758,1.108,0.768,1.413,1.023,0.434,0.772,0.731,�k,3.6,��
2019/03/31,16:30,0.756,1.108,0.769,1.412,1.025,0.435,0.771,0.734,�k�k��,5.5,��
2019/03/31,16:40,0.757,1.106,0.767,1.411,1.024,0.436,0.773,0.735,�k,4.0,��
2019/03/31,16:50,0.757,1.108,0.767,1.414,1.023,0.433,0.771,0.734,�k,5.1,��
2019/03/31,17:00,0.758,1.106,0.769,1.413,1.025,0.435,0.771,0.733,�k,5.2,��
2019/03/31,17:10,0.760,1.106,0.767,1.413,1.023,0.434,0.773,0.733,�k�k��,5.2,��
2019/03/31,17:20,0.758,1.107,0.767,1.411,1.026,0.435,0.773,0.734,�k��,5.8,�L
2019/03/31,17:30,0.760,1.106,0.770,1.412,1.028,0.435,0.776,0.735,���k��,9.7,�L
2019/03/31,17:40,0.758,1.108,0.768,1.413,1.027,0.436,0.775,0.734,���k��,9.1,��
2019/03/31,17:50,0.757,1.105,0.769,1.411,1.026,0.434,0.774,0.734,�k��,4.2,��
2019/03/31,18:00,0.756,1.107,0.765,1.415,1.026,0.435,0.773,0.733,���k��,1.4,��
2019/03/31,18:10,0.758,1.109,0.767,1.411,1.025,0.434,0.774,0.733,��,6.7,��
2019/03/31,18:20,0.756,1.108,0.767,1.415,1.026,0.436,0.774,0.735,���쐼,5.1,��
2019/03/31,18:30,0.757,1.108,0.767,1.416,1.027,0.435,0.775,0.732,���쐼,4.3,��
2019/03/31,18:40,0.757,1.107,0.769,1.415,1.028,0.436,0.774,0.732,��,4.5,��
2019/03/31,18:50,0.758,1.105,0.771,1.415,1.025,0.434,0.776,0.733,��,2.9,��
2019/03/31,19:00,0.759,1.107,0.768,1.412,1.028,0.435,0.776,0.735,���쐼,2.5,��
2019/03/31,19:10,0.758,1.107,0.767,1.415,1.025,0.434,0.776,0.734,�쐼,2.6,��
2019/03/31,19:20,0.759,1.106,0.767,1.416,1.025,0.434,0.775,0.733,���k��,5.2,��
2019/03/31,19:30,0.759,1.107,0.770,1.415,1.026,0.435,0.775,0.732,��,4.1,��
2019/03/31,19:40,0.760,1.108,0.768,1.414,1.024,0.434,0.774,0.735,���k��,3.1,��
2019/03/31,19:50,0.759,1.111,0.769,1.415,1.026,0.434,0.774,0.736,�k��,3.2,��
2019/03/31,20:00,0.757,1.107,0.768,1.417,1.025,0.434,0.775,0.733,�k��,2.6,��
2019/03/31,20:10,0.758,1.107,0.768,1.414,1.027,0.435,0.775,0.734,�k��,5.5,��
2019/03/31,20:20,0.758,1.107,0.768,1.414,1.026,0.435,0.774,0.733,�k�k��,4.5,��
2019/03/31,20:30,0.757,1.106,0.767,1.415,1.027,0.435,0.773,0.733,�k�k��,4.8,��
2019/03/31,20:40,0.759,1.108,0.768,1.415,1.026,0.433,0.774,0.734,�k�k��,5.4,��
2019/03/31,20:50,0.758,1.106,0.769,1.414,1.025,0.434,0.774,0.734,�k,5.6,��
2019/03/31,21:00,0.757,1.109,0.770,1.415,1.025,0.436,0.774,0.734,�k�k��,5.6,��
2019/03/31,21:10,0.758,1.107,0.768,1.415,1.025,0.435,0.772,0.732,�k�k��,5.4,��
2019/03/31,21:20,0.756,1.105,0.769,1.415,1.026,0.434,0.776,0.733,�k�k��,5.0,��
2019/03/31,21:30,0.757,1.106,0.768,1.415,1.025,0.434,0.775,0.734,�k�k��,3.0,��
2019/03/31,21:40,0.755,1.108,0.769,1.417,1.025,0.435,0.774,0.733,�k�k��,3.4,��
2019/03/31,21:50,0.758,1.105,0.768,1.414,1.023,0.433,0.774,0.733,�k�k��,3.5,��
2019/03/31,22:00,0.755,1.108,0.768,1.413,1.025,0.435,0.772,0.734,�k��,2.8,��
2019/03/31,22:10,0.756,1.107,0.769,1.415,1.026,0.434,0.772,0.735,�k�k��,3.8,��
2019/03/31,22:20,0.757,1.106,0.767,1.413,1.028,0.435,0.776,0.733,�k��,5.1,��
2019/03/31,22:30,0.757,1.106,0.771,1.416,1.025,0.433,0.773,0.733,�k��,6.1,��
2019/03/31,22:40,0.757,1.108,0.767,1.418,1.027,0.433,0.774,0.731,�k��,6.3,��
2019/03/31,22:50,0.757,1.106,0.769,1.414,1.025,0.434,0.774,0.733,�k��,5.5,��
2019/03/31,23:00,0.756,1.108,0.769,1.417,1.025,0.434,0.775,0.732,�k��,8.3,��
2019/03/31,23:10,0.757,1.108,0.768,1.414,1.024,0.435,0.774,0.731,�k��,6.3,��
2019/03/31,23:20,0.756,1.108,0.769,1.415,1.026,0.435,0.773,0.734,�k��,5.8,��
2019/03/31,23:30,0.758,1.107,0.769,1.418,1.025,0.433,0.773,0.734,�k��,5.7,��
2019/03/31,23:40,0.757,1.104,0.770,1.417,1.026,0.434,0.775,0.734,�k��,5.1,��
2019/03/31,23:50,0.754,1.109,0.769,1.417,1.025,0.434,0.773,0.733,�k��,4.5,��
